STARLINK-33637, 63470

Orbit data source: Space-Track

STARLINK-33637, 63470 is a payload satellite owned by SpaceX/Seattle (US) in LEO that was launched on Sun, 06 Apr 2025 UTC via an FALCON 9 launch vehicle from the Air Force Eastern Test Range (AFETR). Payload-class satellites include a variety of spacecraft equipped with specific instruments for various scientific and technological missions. These include communications satellites like Starlink; space stations such as the ISS; scientific satellites like the Hubble; Earth observation satellites from companies like Planet Labs, Umbra, and HawkEye 360; GPS; miniature CubeSats for education and research; and military/defense satellites.

Loading next visibility...
Identifier
63470, 2025-070L
Orbit
LEO
Country
Flag of USUS
Related business
Manufacturer
SpaceX/Seattle
Mission
Operational Commercial Communications
Bus & Motor
STARLINK V2MO, Unknown motor
Mass
575 kg wet, ~530 kg dry
Launch date (UTC)
2025-04-06 (1 year ago)
Launch vehicle
FALCON 9
Launch site
Air Force Eastern Test Range (AFETR)
Object type
Payload
Rocket body
Debris
Shape & HBR
Box + 2 Pan, 17.7 m
Radar Cross Section
36.964 m², Large (>1 m²)

Expand to show TLE details & history
Last TLE update: 19 hours ago

TLE from 19 hours ago
0 STARLINK-33637
1 63470U 25070L   26169.39933020  .00018279  00000-0  67211-3 0  9994
2 63470  43.0032  51.4791 0001448 270.2034  89.8652 15.27580477 68374
Epoch: 2026-06-18T09:35Z
TLE epoch observation values (Epoch: 2026-06-18T09:35:02.129Z)
Latitude
0.00001°
Longitude
1.07702°
Altitude
482.821 km
Speed
7.626 km/s
True Right ascension
03h 25m 54s
True Declination
0° 00' 00"
Sunlit
Object was in daylight at epoch
Visualization orbit readout
Latitude
Unknown
Longitude
Unknown
Altitude
Unknown
Speed
Unknown
Apparent Right ascension
Unknown
Apparent Declination
Unknown
Sunlit
N/A
Visualization observer readout
Local Sidereal Time
15:37:23
Azimuth
Unknown
Elevation
Unknown
Doppler factor
Unknown
Orbital elements
Apogee altitude
485.986 km
Perigee altitude
483.999 km
Semi-major axis
6,863.129 km
Eccentricity
0.00014
Inclination
43.0032°
RAAN
51.4791°
Arg. of periapsis
270.2034°
True anomaly
89.88179°
Mean anomaly
89.8652°
Eccentric anomaly
89.8735°
Mean motion
3.81733 °/min
Orbital period
94.31 mins
BSTAR
0.00067211
Loading maneuver chart data...
Computing Atmospheric mass density...
Loading historical data...
Loading historical data...
Loading historical data...
Loading historical data...
Loading historical data...
Loading historical data...
Loading historical data...

Documentation

Showing up to 5 results
|